BRNCO56 KHOP-KSVN

Flight info

Callsign BRNCO56
Flight time 1h 17m
Altitude 17000
Route LAJUG J45 BNA AHN LOTTS T408 MAYAR
Aircraft C130/M-SDE2E3FGRY/H

Departure

Time 2026-05-07 22:32
Airport Campbell Army Airfield (Fort Campbell) (KHOP)

Arrival

Time 2026-05-07 23:49
Airport Hunter Army Air Field (KSVN)
Time Latitude Longitude Altitude Speed Heading
2026-05-07 22:14 36.67783 -87.49119 574 ft 0 kts 223°
2026-05-07 22:26 36.67775 -87.49128 576 ft 4 kts 219°
2026-05-07 22:26 36.67753 -87.49134 574 ft 3 kts 184°
2026-05-07 22:26 36.67724 -87.49132 578 ft 7 kts 170°
2026-05-07 22:26 36.67661 -87.49079 574 ft 22 kts 135°
2026-05-07 22:27 36.67560 -87.49020 573 ft 13 kts 167°
2026-05-07 22:27 36.67486 -87.48999 577 ft 10 kts 167°
2026-05-07 22:27 36.67426 -87.48985 571 ft 8 kts 179°
2026-05-07 22:27 36.67382 -87.49008 570 ft 7 kts 223°
2026-05-07 22:28 36.67354 -87.49042 572 ft 5 kts 223°
2026-05-07 22:28 36.67336 -87.49063 569 ft 2 kts 223°
2026-05-07 22:28 36.67240 -87.49175 574 ft 31 kts 226°
2026-05-07 22:28 36.67070 -87.49384 567 ft 27 kts 224°
2026-05-07 22:29 36.66967 -87.49512 569 ft 21 kts 222°
2026-05-07 22:29 36.66819 -87.49692 570 ft 27 kts 227°
2026-05-07 22:29 36.66718 -87.49816 571 ft 16 kts 221°
2026-05-07 22:29 36.66608 -87.49936 565 ft 20 kts 223°
2026-05-07 22:30 36.66512 -87.50048 566 ft 18 kts 225°
2026-05-07 22:30 36.66442 -87.50138 562 ft 11 kts 223°
2026-05-07 22:30 36.66382 -87.50222 568 ft 12 kts 230°
2026-05-07 22:30 36.66336 -87.50276 569 ft 2 kts 189°
2026-05-07 22:31 36.66333 -87.50263 562 ft 3 kts 67°
2026-05-07 22:31 36.66341 -87.50251 565 ft 1 kts 47°
2026-05-07 22:31 36.66391 -87.50190 562 ft 51 kts 43°
2026-05-07 22:31 36.66905 -87.49581 628 ft 141 kts 45°
2026-05-07 22:32 36.67627 -87.48644 1094 ft 158 kts 42°
2026-05-07 22:32 36.68421 -87.47689 1857 ft 163 kts 41°
2026-05-07 22:32 36.69261 -87.46666 2387 ft 182 kts 45°
2026-05-07 22:32 36.70146 -87.45469 2969 ft 198 kts 46°
2026-05-07 22:33 36.71127 -87.44122 3558 ft 221 kts 45°
2026-05-07 22:33 36.72008 -87.42483 4144 ft 239 kts 67°
2026-05-07 22:33 36.72198 -87.40386 4797 ft 252 kts 97°
2026-05-07 22:33 36.71514 -87.38363 5458 ft 261 kts 127°
2026-05-07 22:34 36.70119 -87.36900 6172 ft 266 kts 149°
2026-05-07 22:34 36.68502 -87.35804 6849 ft 270 kts 154°
2026-05-07 22:34 36.66800 -87.34771 7539 ft 274 kts 157°
2026-05-07 22:34 36.65070 -87.33764 8234 ft 277 kts 158°
2026-05-07 22:35 36.63309 -87.32760 8948 ft 281 kts 159°
2026-05-07 22:35 36.61592 -87.31558 9665 ft 287 kts 148°
2026-05-07 22:35 36.60145 -87.30043 10324 ft 293 kts 139°
2026-05-07 22:35 36.58729 -87.28225 10984 ft 295 kts 137°
2026-05-07 22:36 36.57328 -87.26358 11640 ft 297 kts 137°
2026-05-07 22:36 36.55941 -87.24502 12304 ft 299 kts 137°
2026-05-07 22:36 36.54519 -87.22602 12861 ft 305 kts 138°
2026-05-07 22:36 36.53072 -87.20669 13448 ft 309 kts 138°
2026-05-07 22:37 36.51681 -87.18810 13974 ft 312 kts 138°
2026-05-07 22:37 36.50200 -87.16830 14506 ft 314 kts 139°
2026-05-07 22:37 36.48708 -87.14836 15037 ft 316 kts 139°
2026-05-07 22:37 36.47204 -87.12829 15568 ft 317 kts 139°
2026-05-07 22:38 36.45698 -87.10819 16079 ft 318 kts 139°
2026-05-07 22:38 36.44185 -87.08803 16609 ft 319 kts 139°
2026-05-07 22:38 36.42675 -87.06796 16948 ft 328 kts 140°
2026-05-07 22:38 36.41081 -87.04683 17008 ft 343 kts 139°
2026-05-07 22:39 36.39430 -87.02490 17020 ft 356 kts 139°
2026-05-07 22:39 36.37709 -87.00199 17010 ft 366 kts 139°
2026-05-07 22:39 36.35955 -86.97864 17004 ft 373 kts 139°
2026-05-07 22:39 36.34175 -86.95498 16989 ft 378 kts 139°
2026-05-07 22:40 36.32387 -86.93123 16994 ft 381 kts 139°
2026-05-07 22:40 36.30569 -86.90713 16987 ft 383 kts 139°
2026-05-07 22:40 36.28743 -86.88294 16987 ft 385 kts 139°
2026-05-07 22:40 36.26935 -86.85900 16983 ft 386 kts 139°
2026-05-07 22:41 36.25103 -86.83474 16985 ft 387 kts 139°
2026-05-07 22:41 36.23256 -86.81034 16984 ft 388 kts 139°
2026-05-07 22:41 36.21409 -86.78587 16979 ft 389 kts 139°
2026-05-07 22:41 36.19559 -86.76152 16990 ft 389 kts 139°
2026-05-07 22:42 36.17712 -86.73719 17019 ft 389 kts 139°
2026-05-07 22:42 36.15853 -86.71271 17018 ft 389 kts 139°
2026-05-07 22:42 36.14024 -86.68816 17004 ft 391 kts 136°
2026-05-07 22:42 36.12329 -86.66232 17020 ft 393 kts 133°
2026-05-07 22:43 36.10664 -86.63581 17023 ft 393 kts 133°
2026-05-07 22:43 36.09001 -86.60916 17023 ft 393 kts 133°
2026-05-07 22:43 36.07334 -86.58240 17020 ft 393 kts 133°
2026-05-07 22:43 36.05669 -86.55564 17013 ft 393 kts 133°
2026-05-07 22:44 36.04003 -86.52890 17005 ft 393 kts 133°
2026-05-07 22:44 36.02333 -86.50208 17008 ft 393 kts 133°
2026-05-07 22:44 36.00666 -86.47536 17001 ft 394 kts 133°
2026-05-07 22:44 35.99014 -86.44889 17006 ft 395 kts 133°
2026-05-07 22:45 35.97347 -86.42220 17022 ft 395 kts 133°
2026-05-07 22:45 35.95666 -86.39531 16995 ft 396 kts 133°
2026-05-07 22:45 35.93991 -86.36853 16995 ft 396 kts 133°
2026-05-07 22:45 35.92310 -86.34167 16996 ft 396 kts 133°
2026-05-07 22:46 35.90624 -86.31477 16996 ft 396 kts 133°
2026-05-07 22:46 35.88929 -86.28773 16974 ft 397 kts 133°
2026-05-07 22:46 35.87240 -86.26083 16983 ft 397 kts 133°
2026-05-07 22:46 35.85577 -86.23435 17002 ft 397 kts 133°
2026-05-07 22:47 35.83893 -86.20754 17004 ft 397 kts 133°
2026-05-07 22:47 35.82201 -86.18064 16999 ft 397 kts 133°
2026-05-07 22:47 35.80509 -86.15378 17000 ft 397 kts 133°
2026-05-07 22:47 35.78813 -86.12687 16992 ft 397 kts 133°
2026-05-07 22:48 35.77122 -86.10007 16990 ft 398 kts 133°
2026-05-07 22:48 35.75426 -86.07318 16988 ft 398 kts 133°
2026-05-07 22:48 35.73727 -86.04629 16985 ft 398 kts 133°
2026-05-07 22:48 35.72051 -86.01978 16999 ft 397 kts 133°
2026-05-07 22:49 35.70354 -85.99296 16982 ft 397 kts 133°
2026-05-07 22:49 35.68659 -85.96619 16968 ft 397 kts 133°
2026-05-07 22:49 35.66964 -85.93943 16988 ft 396 kts 133°
2026-05-07 22:49 35.65274 -85.91278 16988 ft 396 kts 133°
2026-05-07 22:50 35.63584 -85.88616 16986 ft 396 kts 133°
2026-05-07 22:50 35.61897 -85.85960 16985 ft 395 kts 133°
2026-05-07 22:50 35.60203 -85.83295 16986 ft 395 kts 133°
2026-05-07 22:50 35.58532 -85.80668 16991 ft 395 kts 133°
2026-05-07 22:51 35.56839 -85.78008 16979 ft 396 kts 133°
2026-05-07 22:51 35.55147 -85.75353 16986 ft 396 kts 133°
2026-05-07 22:51 35.53449 -85.72691 16987 ft 396 kts 133°
2026-05-07 22:51 35.51747 -85.70024 16977 ft 396 kts 133°
2026-05-07 22:52 35.50051 -85.67369 16983 ft 396 kts 133°
2026-05-07 22:52 35.48358 -85.64719 16984 ft 395 kts 133°
2026-05-07 22:52 35.46652 -85.62052 16989 ft 396 kts 133°
2026-05-07 22:52 35.44950 -85.59392 16972 ft 396 kts 133°
2026-05-07 22:53 35.43261 -85.56755 16974 ft 395 kts 133°
2026-05-07 22:53 35.41585 -85.54142 16953 ft 395 kts 134°
2026-05-07 22:53 35.39886 -85.51494 16970 ft 395 kts 134°
2026-05-07 22:53 35.38188 -85.48851 16979 ft 396 kts 134°
2026-05-07 22:54 35.36480 -85.46192 16982 ft 396 kts 134°
2026-05-07 22:54 35.34773 -85.43538 16970 ft 397 kts 134°
2026-05-07 22:54 35.33060 -85.40877 16979 ft 399 kts 134°
2026-05-07 22:54 35.31339 -85.38208 16955 ft 400 kts 134°
2026-05-07 22:55 35.29654 -85.35592 16948 ft 401 kts 134°
2026-05-07 22:55 35.27931 -85.32919 16952 ft 400 kts 134°
2026-05-07 22:55 35.26213 -85.30257 16959 ft 399 kts 134°
2026-05-07 22:55 35.24501 -85.27609 16968 ft 399 kts 134°
2026-05-07 22:56 35.22778 -85.24944 16957 ft 400 kts 134°
2026-05-07 22:56 35.21075 -85.22311 16947 ft 400 kts 134°
2026-05-07 22:56 35.19371 -85.19680 16951 ft 399 kts 134°
2026-05-07 22:56 35.17645 -85.17016 16952 ft 399 kts 134°
2026-05-07 22:57 35.15923 -85.14361 16949 ft 399 kts 135°
2026-05-07 22:57 35.14209 -85.11720 16930 ft 400 kts 137°
2026-05-07 22:57 35.12499 -85.09090 16963 ft 402 kts 137°
2026-05-07 22:57 35.10753 -85.06407 16961 ft 405 kts 137°
2026-05-07 22:58 35.08999 -85.03711 16965 ft 406 kts 137°
2026-05-07 22:58 35.07234 -85.00997 16957 ft 407 kts 137°
2026-05-07 22:58 35.05472 -84.98292 16958 ft 408 kts 137°
2026-05-07 22:58 35.03711 -84.95592 16958 ft 408 kts 137°
2026-05-07 22:59 35.01937 -84.92874 16949 ft 409 kts 137°
2026-05-07 22:59 35.00218 -84.90242 16947 ft 409 kts 137°
2026-05-07 22:59 34.96721 -84.84893 16956 ft 410 kts 137°
2026-05-07 23:00 34.94957 -84.82198 16952 ft 410 kts 137°
2026-05-07 23:00 34.93175 -84.79479 16959 ft 409 kts 137°
2026-05-07 23:00 34.91416 -84.76794 16963 ft 409 kts 137°
2026-05-07 23:00 34.89641 -84.74089 16960 ft 410 kts 137°
2026-05-07 23:01 34.87878 -84.71402 16963 ft 410 kts 137°
2026-05-07 23:01 34.86116 -84.68723 16958 ft 410 kts 138°
2026-05-07 23:01 34.84322 -84.65996 16952 ft 411 kts 138°
2026-05-07 23:01 34.82558 -84.63316 16948 ft 412 kts 138°
2026-05-07 23:02 34.80767 -84.60596 16951 ft 412 kts 138°
2026-05-07 23:02 34.78981 -84.57884 16945 ft 413 kts 138°
2026-05-07 23:02 34.77182 -84.55157 16951 ft 412 kts 138°
2026-05-07 23:02 34.75434 -84.52508 16950 ft 412 kts 138°
2026-05-07 23:03 34.73641 -84.49793 16937 ft 413 kts 138°
2026-05-07 23:03 34.71850 -84.47087 16933 ft 412 kts 138°
2026-05-07 23:03 34.70110 -84.44457 16933 ft 412 kts 138°
2026-05-07 23:03 34.68317 -84.41749 16918 ft 413 kts 138°
2026-05-07 23:04 34.66514 -84.39027 16931 ft 413 kts 138°
2026-05-07 23:04 34.64717 -84.36318 16922 ft 413 kts 138°
2026-05-07 23:04 34.62919 -84.33612 16917 ft 412 kts 138°
2026-05-07 23:04 34.61726 -84.31817 16929 ft 411 kts 138°
2026-05-07 23:05 34.59933 -84.29118 16881 ft 411 kts 138°
2026-05-07 23:05 34.57571 -84.25563 16918 ft 410 kts 138°
2026-05-07 23:05 34.55779 -84.22875 16922 ft 410 kts 138°
2026-05-07 23:05 34.53985 -84.20185 16911 ft 410 kts 138°
2026-05-07 23:06 34.52197 -84.17501 16915 ft 410 kts 138°
2026-05-07 23:06 34.50409 -84.14823 16915 ft 410 kts 138°
2026-05-07 23:06 34.49222 -84.13043 16914 ft 410 kts 138°
2026-05-07 23:06 34.47427 -84.10355 16910 ft 410 kts 138°
2026-05-07 23:07 34.45030 -84.06770 16926 ft 410 kts 138°
2026-05-07 23:07 34.43269 -84.04138 16924 ft 410 kts 138°
2026-05-07 23:07 34.41475 -84.01458 16928 ft 409 kts 138°
2026-05-07 23:07 34.39682 -83.98788 16960 ft 409 kts 138°
2026-05-07 23:08 34.38471 -83.96983 16944 ft 409 kts 138°
2026-05-07 23:08 34.36675 -83.94306 16948 ft 410 kts 138°
2026-05-07 23:08 34.34902 -83.91666 16955 ft 410 kts 138°
2026-05-07 23:08 34.33105 -83.88992 16949 ft 410 kts 138°
2026-05-07 23:09 34.31310 -83.86321 16948 ft 408 kts 138°
2026-05-07 23:09 34.28938 -83.82801 16960 ft 408 kts 138°
2026-05-07 23:09 34.27737 -83.81020 16956 ft 408 kts 139°
2026-05-07 23:09 34.25379 -83.77521 16959 ft 407 kts 138°
2026-05-07 23:10 34.24165 -83.75723 16955 ft 407 kts 138°
2026-05-07 23:10 34.22406 -83.73117 16955 ft 407 kts 138°
2026-05-07 23:10 34.20616 -83.70467 16957 ft 407 kts 138°
2026-05-07 23:10 34.18832 -83.67829 17028 ft 405 kts 138°
2026-05-07 23:11 34.17045 -83.65190 17035 ft 406 kts 138°
2026-05-07 23:11 34.15255 -83.62547 17030 ft 407 kts 138°
2026-05-07 23:11 34.13461 -83.59900 17030 ft 407 kts 138°
2026-05-07 23:11 34.11706 -83.57313 17028 ft 408 kts 138°
2026-05-07 23:12 34.09865 -83.54600 17030 ft 407 kts 138°
2026-05-07 23:12 34.08071 -83.51958 17026 ft 407 kts 138°
2026-05-07 23:12 34.06301 -83.49355 17025 ft 407 kts 138°
2026-05-07 23:12 34.04525 -83.46745 17018 ft 407 kts 138°
2026-05-07 23:13 34.02731 -83.44108 16992 ft 406 kts 138°
2026-05-07 23:13 34.00936 -83.41472 17006 ft 406 kts 138°
2026-05-07 23:13 33.99145 -83.38846 17002 ft 406 kts 138°
2026-05-07 23:13 33.97353 -83.36228 17003 ft 405 kts 140°
2026-05-07 23:14 33.95441 -83.33831 17004 ft 399 kts 146°
2026-05-07 23:14 33.93404 -83.31585 17000 ft 396 kts 149°
2026-05-07 23:14 33.91300 -83.29479 17002 ft 392 kts 152°
2026-05-07 23:14 33.89165 -83.27440 17000 ft 391 kts 153°
2026-05-07 23:15 33.87031 -83.25426 17001 ft 392 kts 153°
2026-05-07 23:15 33.84884 -83.23413 16998 ft 392 kts 153°
2026-05-07 23:15 33.82739 -83.21407 16994 ft 392 kts 153°
2026-05-07 23:15 33.80593 -83.19402 16990 ft 392 kts 153°
2026-05-07 23:16 33.78434 -83.17387 16991 ft 392 kts 153°
2026-05-07 23:16 33.76280 -83.15378 16941 ft 392 kts 153°
2026-05-07 23:16 33.74153 -83.13397 16985 ft 392 kts 153°
2026-05-07 23:16 33.72000 -83.11391 16997 ft 391 kts 153°
2026-05-07 23:17 33.69879 -83.09418 17004 ft 391 kts 153°
2026-05-07 23:17 33.67725 -83.07415 17002 ft 391 kts 153°
2026-05-07 23:17 33.65571 -83.05414 16997 ft 391 kts 153°
2026-05-07 23:17 33.63418 -83.03417 17003 ft 391 kts 153°
2026-05-07 23:18 33.61277 -83.01431 16999 ft 392 kts 153°
2026-05-07 23:18 33.59119 -82.99434 17001 ft 391 kts 153°
2026-05-07 23:18 33.56963 -82.97436 16998 ft 392 kts 153°
2026-05-07 23:18 33.54814 -82.95447 16991 ft 392 kts 153°
2026-05-07 23:19 33.52683 -82.93476 16990 ft 392 kts 153°
2026-05-07 23:19 33.50525 -82.91482 16985 ft 392 kts 153°
2026-05-07 23:19 33.48367 -82.89489 16982 ft 392 kts 153°
2026-05-07 23:19 33.46208 -82.87496 16964 ft 392 kts 153°
2026-05-07 23:20 33.44043 -82.85501 16973 ft 392 kts 153°
2026-05-07 23:20 33.41881 -82.83511 16977 ft 392 kts 153°
2026-05-07 23:20 33.39728 -82.81529 16983 ft 393 kts 153°
2026-05-07 23:20 33.37562 -82.79536 16978 ft 393 kts 153°
2026-05-07 23:21 33.35397 -82.77545 16977 ft 394 kts 153°
2026-05-07 23:21 33.33254 -82.75577 16976 ft 394 kts 153°
2026-05-07 23:21 33.31085 -82.73585 16977 ft 394 kts 153°
2026-05-07 23:21 33.28906 -82.71587 16977 ft 394 kts 153°
2026-05-07 23:22 33.26736 -82.69596 16970 ft 394 kts 153°
2026-05-07 23:22 33.24558 -82.67601 16967 ft 394 kts 153°
2026-05-07 23:22 33.22399 -82.65624 16968 ft 394 kts 153°
2026-05-07 23:22 33.20221 -82.63632 16962 ft 394 kts 153°
2026-05-07 23:23 33.18047 -82.61643 16961 ft 394 kts 153°
2026-05-07 23:23 33.15901 -82.59682 16961 ft 394 kts 153°
2026-05-07 23:23 33.13729 -82.57699 16956 ft 394 kts 153°
2026-05-07 23:23 33.11547 -82.55709 16959 ft 394 kts 153°
2026-05-07 23:24 33.09368 -82.53722 16955 ft 394 kts 153°
2026-05-07 23:24 33.07216 -82.51761 16954 ft 394 kts 153°
2026-05-07 23:24 33.05030 -82.49770 16954 ft 394 kts 153°
2026-05-07 23:24 33.02864 -82.47799 16956 ft 394 kts 153°
2026-05-07 23:25 33.00680 -82.45812 16946 ft 394 kts 153°
2026-05-07 23:25 32.98505 -82.43836 16950 ft 394 kts 153°
2026-05-07 23:25 32.96328 -82.41859 16951 ft 394 kts 153°
2026-05-07 23:25 32.94182 -82.39912 16950 ft 394 kts 153°
2026-05-07 23:26 32.91999 -82.37932 16917 ft 394 kts 153°
2026-05-07 23:26 32.89830 -82.35963 16988 ft 391 kts 153°
2026-05-07 23:26 32.87671 -82.34007 17023 ft 390 kts 153°
2026-05-07 23:26 32.85516 -82.32058 17024 ft 391 kts 153°
2026-05-07 23:27 32.81182 -82.28139 17023 ft 391 kts 153°
2026-05-07 23:27 32.79046 -82.26209 17021 ft 391 kts 153°
2026-05-07 23:27 32.76877 -82.24251 17024 ft 391 kts 153°
2026-05-07 23:28 32.74701 -82.22287 17025 ft 391 kts 153°
2026-05-07 23:28 32.72532 -82.20332 17026 ft 392 kts 153°
2026-05-07 23:28 32.70363 -82.18377 17023 ft 392 kts 153°
2026-05-07 23:28 32.68211 -82.16439 17031 ft 392 kts 153°
2026-05-07 23:29 32.66032 -82.14479 17024 ft 392 kts 153°
2026-05-07 23:29 32.63851 -82.12518 16992 ft 393 kts 152°
2026-05-07 23:29 32.61712 -82.10593 17023 ft 391 kts 152°
2026-05-07 23:29 32.59550 -82.08651 17047 ft 390 kts 152°
2026-05-07 23:30 32.57387 -82.06710 17047 ft 390 kts 152°
2026-05-07 23:30 32.55248 -82.04792 17049 ft 389 kts 152°
2026-05-07 23:30 32.53087 -82.02855 17050 ft 389 kts 152°
2026-05-07 23:30 32.50941 -82.00929 17119 ft 387 kts 153°
2026-05-07 23:31 32.48741 -81.98972 16403 ft 405 kts 152°
2026-05-07 23:31 32.46491 -81.96962 15737 ft 417 kts 151°
2026-05-07 23:31 32.44161 -81.94874 15085 ft 419 kts 150°
2026-05-07 23:31 32.41900 -81.92840 14452 ft 395 kts 151°
2026-05-07 23:32 32.39755 -81.90917 13844 ft 383 kts 151°
2026-05-07 23:32 32.37637 -81.89033 13181 ft 377 kts 151°
2026-05-07 23:32 32.35627 -81.87055 12453 ft 378 kts 141°
2026-05-07 23:32 32.33976 -81.84646 11817 ft 376 kts 127°
2026-05-07 23:33 32.32771 -81.81929 11227 ft 372 kts 115°
2026-05-07 23:33 32.31829 -81.79071 11090 ft 373 kts 112°
2026-05-07 23:33 32.30959 -81.76230 11053 ft 374 kts 111°
2026-05-07 23:33 32.30105 -81.73330 11044 ft 374 kts 111°
2026-05-07 23:34 32.29260 -81.70418 11046 ft 374 kts 110°
2026-05-07 23:34 32.28420 -81.67509 11045 ft 374 kts 110°
2026-05-07 23:34 32.27601 -81.64616 11044 ft 374 kts 109°
2026-05-07 23:34 32.26823 -81.61687 11036 ft 371 kts 109°
2026-05-07 23:35 32.26051 -81.58761 10357 ft 372 kts 109°
2026-05-07 23:35 32.25310 -81.55945 9639 ft 350 kts 109°
2026-05-07 23:35 32.24625 -81.53315 8893 ft 331 kts 109°
2026-05-07 23:35 32.23960 -81.50747 8170 ft 325 kts 109°
2026-05-07 23:36 32.23303 -81.48214 7477 ft 320 kts 109°
2026-05-07 23:36 32.22660 -81.45727 6788 ft 312 kts 109°
2026-05-07 23:36 32.22032 -81.43314 6101 ft 303 kts 109°
2026-05-07 23:36 32.21413 -81.40924 5412 ft 308 kts 109°
2026-05-07 23:37 32.20823 -81.38579 5097 ft 298 kts 109°
2026-05-07 23:37 32.20207 -81.36132 5049 ft 309 kts 109°
2026-05-07 23:37 32.19591 -81.33720 5031 ft 308 kts 109°
2026-05-07 23:37 32.18979 -81.31322 5029 ft 309 kts 106°
2026-05-07 23:38 32.18844 -81.28845 5038 ft 311 kts 85°
2026-05-07 23:38 32.19078 -81.26300 5034 ft 312 kts 83°
2026-05-07 23:38 32.19335 -81.23753 5036 ft 312 kts 83°
2026-05-07 23:38 32.19589 -81.21214 5032 ft 314 kts 83°
2026-05-07 23:39 32.19832 -81.18652 5049 ft 312 kts 83°
2026-05-07 23:39 32.20068 -81.16101 5036 ft 314 kts 83°
2026-05-07 23:39 32.20311 -81.13554 5031 ft 312 kts 83°
2026-05-07 23:39 32.20564 -81.11010 5031 ft 312 kts 83°
2026-05-07 23:40 32.20814 -81.08464 5032 ft 314 kts 83°
2026-05-07 23:40 32.21063 -81.05906 5036 ft 312 kts 83°
2026-05-07 23:40 32.21191 -81.03401 5034 ft 312 kts 97°
2026-05-07 23:40 32.20475 -81.01031 5042 ft 305 kts 129°
2026-05-07 23:41 32.19063 -80.99231 5020 ft 298 kts 142°
2026-05-07 23:41 32.17543 -80.97560 4027 ft 296 kts 143°
2026-05-07 23:41 32.16063 -80.95933 3240 ft 286 kts 143°
2026-05-07 23:41 32.14611 -80.94326 3051 ft 286 kts 143°
2026-05-07 23:42 32.13149 -80.92704 1983 ft 289 kts 142°
2026-05-07 23:42 32.11713 -80.91156 1802 ft 276 kts 143°
2026-05-07 23:42 32.10277 -80.89637 1991 ft 278 kts 146°
2026-05-07 23:42 32.08601 -80.88644 2046 ft 267 kts 169°
2026-05-07 23:43 32.06824 -80.88151 2029 ft 261 kts 180°
2026-05-07 23:43 32.05085 -80.88411 2022 ft 250 kts 204°
2026-05-07 23:43 32.03675 -80.89491 2015 ft 241 kts 230°
2026-05-07 23:43 32.02718 -80.91047 2061 ft 226 kts 247°
2026-05-07 23:44 32.02103 -80.92630 2118 ft 200 kts 249°
2026-05-07 23:44 32.01574 -80.94092 2100 ft 187 kts 249°
2026-05-07 23:44 32.01096 -80.95500 1915 ft 184 kts 250°
2026-05-07 23:44 32.00678 -80.96877 1888 ft 172 kts 255°
2026-05-07 23:45 32.00514 -80.98121 1901 ft 139 kts 268°
2026-05-07 23:45 32.00573 -80.99205 1774 ft 131 kts 272°
2026-05-07 23:45 32.00655 -81.00230 1665 ft 125 kts 271°
2026-05-07 23:45 32.00697 -81.01242 1560 ft 125 kts 264°
2026-05-07 23:46 32.00635 -81.02264 1559 ft 127 kts 271°
2026-05-07 23:46 32.00667 -81.03316 1525 ft 131 kts 272°
2026-05-07 23:46 32.00718 -81.04392 1516 ft 131 kts 270°
2026-05-07 23:46 32.00747 -81.05467 1538 ft 132 kts 269°
2026-05-07 23:47 32.00777 -81.06542 1414 ft 129 kts 270°
2026-05-07 23:47 32.00812 -81.07600 1282 ft 135 kts 269°
2026-05-07 23:47 32.00834 -81.08737 1105 ft 144 kts 270°
2026-05-07 23:47 32.00872 -81.09811 866 ft 125 kts 270°
2026-05-07 23:48 32.00887 -81.10869 628 ft 136 kts 269°
2026-05-07 23:48 32.00917 -81.12021 330 ft 146 kts 270°
2026-05-07 23:48 32.00955 -81.13150 69 ft 130 kts 271°
2026-05-07 23:48 32.00974 -81.13889 46 ft 53 kts 271°
2026-05-07 23:49 32.00998 -81.14444 50 ft 50 kts 272°
2026-05-07 23:49 32.01014 -81.14738 47 ft 20 kts 285°
2026-05-07 23:49 32.01091 -81.14787 52 ft 11 kts 19°
2026-05-07 23:49 32.01155 -81.14729 52 ft 11 kts 48°
2026-05-07 23:50 32.01218 -81.14641 48 ft 16 kts 50°
2026-05-07 23:50 32.01283 -81.14549 50 ft 14 kts 50°
2026-05-07 23:50 32.01353 -81.14444 49 ft 19 kts 51°
2026-05-07 23:50 32.01429 -81.14334 49 ft 15 kts 50°
2026-05-07 23:51 32.01491 -81.14243 50 ft 15 kts 50°
2026-05-07 23:51 32.01576 -81.14152 50 ft 21 kts 25°
2026-05-07 23:51 32.01691 -81.14099 48 ft 17 kts 17°
2026-05-07 23:51 32.01788 -81.14069 49 ft 14 kts 14°
2026-05-07 23:52 32.01908 -81.14031 46 ft 18 kts 15°
2026-05-07 23:52 32.02023 -81.13995 43 ft 14 kts 14°
2026-05-07 23:52 32.02121 -81.13965 46 ft 16 kts 14°
2026-05-07 23:52 32.02219 -81.13949 44 ft 12 kts 349°
2026-05-07 23:53 32.02300 -81.13973 44 ft 13 kts 342°
2026-05-07 23:53 32.02377 -81.14011 43 ft 8 kts 346°
2026-05-07 23:53 32.02408 -81.13989 46 ft 0 kts 59°